Time,TemperatureF,DewpointF,PressureIn,WindDirection,WindDirectionDegrees,WindSpeedMPH,WindSpeedGustMPH,Humidity,HourlyPrecipIn,Conditions,Clouds,dailyrainin,SoftwareType,DateUTC
2013-06-12 00:02:00,56.5,37.6,29.77,NE,53,0.0,0.0,49,0.00,,SCT200,0.00,VWS V14.01,2013-06-12 07:02:00,
2013-06-12 00:07:00,56.5,37.6,29.77,NE,41,0.0,0.0,49,0.00,,SCT200,0.00,VWS V14.01,2013-06-12 07:07:00,
2013-06-12 00:12:00,56.5,37.6,29.77,NE,41,0.0,0.0,49,0.00,,SCT200,0.00,VWS V14.01,2013-06-12 07:12:00,
2013-06-12 00:17:00,56.3,37.9,29.77,ENE,66,0.0,0.0,50,0.00,,SCT200,0.00,VWS V14.01,2013-06-12 07:17:00,
2013-06-12 00:22:00,56.3,37.9,29.77,South,179,0.0,0.0,50,0.00,,SCT200,0.00,VWS V14.01,2013-06-12 07:22:00,
2013-06-12 00:27:00,56.1,38.3,29.77,South,179,0.0,0.0,51,0.00,,SCT200,0.00,VWS V14.01,2013-06-12 07:27:00,
2013-06-12 00:32:00,55.9,38.1,29.77,East,79,0.0,0.0,51,0.00,,SCT200,0.00,VWS V14.01,2013-06-12 07:32:00,
2013-06-12 00:37:00,55.9,38.1,29.77,East,79,0.0,0.0,51,0.00,,SCT200,0.00,VWS V14.01,2013-06-12 07:37:00,
2013-06-12 00:42:00,56.1,38.8,29.77,NE,50,3.1,3.1,52,0.00,,SCT200,0.00,VWS V14.01,2013-06-12 07:42:00,
2013-06-12 00:47:00,55.9,39.1,29.77,NE,50,3.1,3.1,53,0.00,,SCT200,0.00,VWS V14.01,2013-06-12 07:47:00,
2013-06-12 00:52:00,55.9,39.1,29.77,NE,50,3.1,3.1,53,0.00,,SCT200,0.00,VWS V14.01,2013-06-12 07:52:00,
2013-06-12 00:57:00,55.9,39.1,29.77,NNE,33,0.0,0.0,53,0.00,,SCT200,0.00,VWS V14.01,2013-06-12 07:57:00,
2013-06-12 01:02:00,55.9,39.1,29.77,NE,49,0.0,0.0,53,0.00,,SCT150,0.00,VWS V14.01,2013-06-12 08:02:00,
2013-06-12 01:07:00,55.9,39.1,29.77,East,80,0.0,0.0,53,0.00,,SCT150,0.00,VWS V14.01,2013-06-12 08:07:00,
2013-06-12 01:12:00,55.9,39.1,29.77,ENE,72,2.7,2.7,53,0.00,,SCT150,0.00,VWS V14.01,2013-06-12 08:12:00,
2013-06-12 01:17:00,55.9,39.1,29.77,SW,223,0.0,0.0,53,0.00,,SCT150,0.00,VWS V14.01,2013-06-12 08:17:00,
2013-06-12 01:22:00,55.9,39.1,29.77,SW,223,0.0,0.0,53,0.00,,SCT150,0.00,VWS V14.01,2013-06-12 08:22:00,
2013-06-12 01:27:00,55.9,39.5,29.77,East,99,0.0,0.0,54,0.00,,SCT150,0.00,VWS V14.01,2013-06-12 08:27:00,
2013-06-12 01:32:00,55.9,39.5,29.77,SSE,154,0.0,2.7,54,0.00,,SCT150,0.00,VWS V14.01,2013-06-12 08:32:00,
2013-06-12 01:37:00,55.9,39.1,29.77,South,174,0.0,0.0,53,0.00,,SCT150,0.00,VWS V14.01,2013-06-12 08:37:00,
2013-06-12 01:42:00,55.9,39.1,29.77,NE,34,0.0,0.0,53,0.00,,SCT150,0.00,VWS V14.01,2013-06-12 08:42:00,
2013-06-12 01:47:00,56.1,38.8,29.77,ENE,72,0.0,0.0,52,0.00,,SCT150,0.00,VWS V14.01,2013-06-12 08:47:00,
2013-06-12 01:52:00,56.1,38.8,29.77,NE,45,0.0,0.0,52,0.00,,SCT150,0.00,VWS V14.01,2013-06-12 08:52:00,
2013-06-12 01:57:00,56.1,38.8,29.77,NE,45,0.0,0.0,52,0.00,,SCT150,0.00,VWS V14.01,2013-06-12 08:57:00,
2013-06-12 02:02:00,56.1,38.8,29.77,NE,48,0.0,0.0,52,0.00,,SCT150,0.00,VWS V14.01,2013-06-12 09:02:00,
2013-06-12 02:07:00,55.9,38.6,29.77,NE,48,0.0,0.0,52,0.00,,SCT150,0.00,VWS V14.01,2013-06-12 09:07:00,
2013-06-12 02:12:00,55.8,38.4,29.77,NE,48,0.0,0.0,52,0.00,,SCT150,0.00,VWS V14.01,2013-06-12 09:12:00,
2013-06-12 02:17:00,55.8,38.4,29.77,East,79,0.0,0.0,52,0.00,,SCT150,0.00,VWS V14.01,2013-06-12 09:17:00,
2013-06-12 02:22:00,55.8,37.9,29.77,East,84,0.0,0.0,51,0.00,,SCT150,0.00,VWS V14.01,2013-06-12 09:22:00,
2013-06-12 02:27:00,55.8,37.9,29.77,ENE,61,0.0,0.0,51,0.00,,SCT150,0.00,VWS V14.01,2013-06-12 09:27:00,
2013-06-12 02:32:00,55.8,37.9,29.77,ENE,61,0.0,0.0,51,0.00,,SCT150,0.00,VWS V14.01,2013-06-12 09:32:00,
2013-06-12 02:36:00,55.8,37.9,29.77,NE,52,0.0,0.0,51,0.00,,SCT150,0.00,VWS V14.01,2013-06-12 09:36:00,
2013-06-12 02:41:00,55.8,37.9,29.77,NE,56,0.0,0.0,51,0.00,,SCT150,0.00,VWS V14.01,2013-06-12 09:41:00,
2013-06-12 02:46:00,55.6,37.8,29.77,NE,40,0.0,0.0,51,0.00,,SCT150,0.00,VWS V14.01,2013-06-12 09:46:00,
2013-06-12 02:51:00,55.6,37.8,29.77,ENE,66,0.0,0.0,51,0.00,,SCT150,0.00,VWS V14.01,2013-06-12 09:51:00,
2013-06-12 02:56:00,55.6,37.8,29.77,NNE,27,0.0,0.0,51,0.00,,SCT150,0.00,VWS V14.01,2013-06-12 09:56:00,
2013-06-12 03:01:00,55.6,38.2,29.77,NNE,27,0.0,0.0,52,0.00,,FEW150,0.00,VWS V14.01,2013-06-12 10:01:00,
2013-06-12 03:06:00,55.6,38.2,29.77,NNE,27,0.0,0.0,52,0.00,,FEW150,0.00,VWS V14.01,2013-06-12 10:06:00,
2013-06-12 03:11:00,55.4,37.6,29.77,NNE,27,0.0,0.0,51,0.00,,FEW150,0.00,VWS V14.01,2013-06-12 10:11:00,
2013-06-12 03:16:00,55.4,37.6,29.77,ENE,60,0.0,0.0,51,0.00,,FEW150,0.00,VWS V14.01,2013-06-12 10:16:00,
2013-06-12 03:21:00,55.2,37.9,29.77,SE,143,0.0,0.0,52,0.00,,FEW150,0.00,VWS V14.01,2013-06-12 10:21:00,
2013-06-12 03:26:00,55.2,37.9,29.77,SE,144,0.0,0.0,52,0.00,,FEW150,0.00,VWS V14.01,2013-06-12 10:26:00,
2013-06-12 03:31:00,55.2,37.9,29.77,SE,130,0.0,0.0,52,0.00,,FEW150,0.00,VWS V14.01,2013-06-12 10:31:00,
2013-06-12 03:36:00,55.2,38.4,29.77,East,88,0.0,0.0,53,0.00,,FEW150,0.00,VWS V14.01,2013-06-12 10:36:00,
2013-06-12 03:41:00,55.2,38.4,29.77,East,88,0.0,0.0,53,0.00,,FEW150,0.00,VWS V14.01,2013-06-12 10:41:00,
2013-06-12 03:46:00,55.2,38.4,29.77,East,88,0.0,0.0,53,0.00,,FEW150,0.00,VWS V14.01,2013-06-12 10:46:00,
2013-06-12 03:51:00,55.2,38.4,29.77,ENE,64,0.0,0.0,53,0.00,,FEW150,0.00,VWS V14.01,2013-06-12 10:51:00,
2013-06-12 03:56:00,55.2,37.9,29.77,ENE,64,0.0,0.0,52,0.00,,FEW150,0.00,VWS V14.01,2013-06-12 10:56:00,
2013-06-12 04:01:00,55.2,38.4,29.77,WSW,247,2.7,2.7,53,0.00,,FEW150,0.00,VWS V14.01,2013-06-12 11:01:00,
2013-06-12 04:06:00,55.2,37.9,29.77,SSW,210,0.0,0.0,52,0.00,,FEW150,0.00,VWS V14.01,2013-06-12 11:06:00,
2013-06-12 04:11:00,55.0,37.8,29.77,SSW,210,0.0,0.0,52,0.00,,FEW150,0.00,VWS V14.01,2013-06-12 11:11:00,
2013-06-12 04:16:00,55.0,37.8,29.77,SE,143,0.0,0.0,52,0.00,,FEW150,0.00,VWS V14.01,2013-06-12 11:16:00,
2013-06-12 04:21:00,55.0,37.8,29.77,WNW,298,0.0,0.0,52,0.00,,FEW150,0.00,VWS V14.01,2013-06-12 11:21:00,
2013-06-12 04:26:00,55.0,37.8,29.77,SSE,158,0.0,0.0,52,0.00,,FEW150,0.00,VWS V14.01,2013-06-12 11:26:00,
2013-06-12 04:31:00,54.9,37.6,29.77,SE,132,0.0,0.0,52,0.00,,FEW150,0.00,VWS V14.01,2013-06-12 11:31:00,
2013-06-12 04:36:00,54.9,37.6,29.77,SE,132,0.0,0.0,52,0.00,,FEW150,0.00,VWS V14.01,2013-06-12 11:36:00,
2013-06-12 04:41:00,54.7,37.4,29.77,SE,132,0.0,0.0,52,0.00,,FEW150,0.00,VWS V14.01,2013-06-12 11:41:00,
2013-06-12 04:46:00,54.7,37.4,29.77,SSW,194,0.0,0.0,52,0.00,,FEW150,0.00,VWS V14.01,2013-06-12 11:46:00,
2013-06-12 04:51:00,54.7,37.4,29.77,SSW,194,0.0,0.0,52,0.00,,FEW150,0.00,VWS V14.01,2013-06-12 11:51:00,
2013-06-12 04:56:00,54.1,36.9,29.77,SSW,194,0.0,0.0,52,0.00,,FEW150,0.00,VWS V14.01,2013-06-12 11:56:00,
2013-06-12 05:01:00,54.1,36.9,29.77,SSW,194,0.0,0.0,52,0.00,,FEW150,0.00,VWS V14.01,2013-06-12 12:01:00,
2013-06-12 05:06:00,53.6,36.4,29.77,SSW,194,0.0,0.0,52,0.00,,FEW150,0.00,VWS V14.01,2013-06-12 12:06:00,
2013-06-12 05:11:00,53.4,36.2,29.77,SSW,194,0.0,0.0,52,0.00,,FEW150,0.00,VWS V14.01,2013-06-12 12:11:00,
2013-06-12 05:16:00,53.4,36.2,29.77,SSW,194,0.0,0.0,52,0.00,,FEW150,0.00,VWS V14.01,2013-06-12 12:16:00,
2013-06-12 05:21:00,53.4,36.2,29.77,SSW,194,0.0,0.0,52,0.00,,FEW150,0.00,VWS V14.01,2013-06-12 12:21:00,
2013-06-12 05:26:00,53.2,36.6,29.77,SSW,194,0.0,0.0,53,0.00,,FEW150,0.00,VWS V14.01,2013-06-12 12:26:00,
2013-06-12 05:31:00,53.4,36.7,29.77,SSW,194,0.0,0.0,53,0.00,,FEW150,0.00,VWS V14.01,2013-06-12 12:31:00,
2013-06-12 05:36:00,53.2,36.6,29.77,SSW,194,0.0,0.0,53,0.00,,FEW150,0.00,VWS V14.01,2013-06-12 12:36:00,
2013-06-12 05:41:00,53.2,36.6,29.77,SSW,194,0.0,0.0,53,0.00,,FEW150,0.00,VWS V14.01,2013-06-12 12:41:00,
2013-06-12 05:46:00,53.2,36.6,29.77,SSW,194,0.0,0.0,53,0.00,,FEW150,0.00,VWS V14.01,2013-06-12 12:46:00,
2013-06-12 05:51:00,53.2,36.6,29.80,SSW,194,0.0,0.0,53,0.00,,FEW150,0.00,VWS V14.01,2013-06-12 12:51:00,
2013-06-12 05:56:00,53.2,36.6,29.80,SSW,194,0.0,0.0,53,0.00,,FEW150,0.00,VWS V14.01,2013-06-12 12:56:00,
2013-06-12 06:01:00,53.2,37.0,29.80,SSW,194,0.0,0.0,54,0.00,,SCT120,0.00,VWS V14.01,2013-06-12 13:01:00,
2013-06-12 06:06:00,53.2,37.0,29.80,SSW,194,0.0,0.0,54,0.00,,SCT120,0.00,VWS V14.01,2013-06-12 13:06:00,
2013-06-12 06:11:00,53.2,37.0,29.80,SSW,194,0.0,0.0,54,0.00,,SCT120,0.00,VWS V14.01,2013-06-12 13:11:00,
2013-06-12 06:16:00,53.2,37.0,29.80,SSW,193,0.0,0.0,54,0.00,,SCT120,0.00,VWS V14.01,2013-06-12 13:16:00,
2013-06-12 06:21:00,53.2,37.0,29.80,SSW,194,0.0,0.0,54,0.00,,SCT120,0.00,VWS V14.01,2013-06-12 13:21:00,
2013-06-12 06:26:00,53.4,37.2,29.80,SSW,194,0.0,0.0,54,0.00,,SCT120,0.00,VWS V14.01,2013-06-12 13:26:00,
2013-06-12 06:31:00,53.4,37.2,29.80,SSW,194,0.0,0.0,54,0.00,,SCT120,0.00,VWS V14.01,2013-06-12 13:31:00,
2013-06-12 06:36:00,53.6,37.4,29.80,SSW,194,0.0,0.0,54,0.00,,SCT120,0.00,VWS V14.01,2013-06-12 13:36:00,
2013-06-12 06:41:00,53.6,37.4,29.80,SSW,194,0.0,0.0,54,0.00,,SCT120,0.00,VWS V14.01,2013-06-12 13:41:00,
2013-06-12 06:46:00,53.6,37.4,29.80,SSW,194,0.0,0.0,54,0.00,,SCT120,0.00,VWS V14.01,2013-06-12 13:46:00,
2013-06-12 06:51:00,53.6,37.4,29.80,SSW,194,0.0,0.0,54,0.00,,SCT120,0.00,VWS V14.01,2013-06-12 13:51:00,
2013-06-12 06:56:00,53.6,37.4,29.80,SSW,194,0.0,0.0,54,0.00,,SCT120,0.00,VWS V14.01,2013-06-12 13:56:00,
2013-06-12 07:01:00,53.8,38.0,29.80,SSW,193,0.0,0.0,55,0.00,,FEW010,0.00,VWS V14.01,2013-06-12 14:01:00,
2013-06-12 07:06:00,53.8,38.0,29.80,SSW,194,0.0,0.0,55,0.00,,FEW010,0.00,VWS V14.01,2013-06-12 14:06:00,
2013-06-12 07:11:00,53.8,38.0,29.80,SSW,194,0.0,0.0,55,0.00,,FEW010,0.00,VWS V14.01,2013-06-12 14:11:00,
2013-06-12 07:16:00,54.0,38.2,29.80,SSW,194,0.0,0.0,55,0.00,,FEW010,0.00,VWS V14.01,2013-06-12 14:16:00,
2013-06-12 07:21:00,54.0,38.2,29.80,SSW,194,0.0,0.0,55,0.00,,FEW010,0.00,VWS V14.01,2013-06-12 14:21:00,
2013-06-12 07:26:00,54.1,38.3,29.80,SSW,194,0.0,0.0,55,0.00,,FEW010,0.00,VWS V14.01,2013-06-12 14:26:00,
2013-06-12 07:31:00,54.1,38.3,29.80,SSW,194,0.0,0.0,55,0.00,,FEW010,0.00,VWS V14.01,2013-06-12 14:31:00,
2013-06-12 07:36:00,54.3,39.0,29.80,SSW,194,0.0,0.0,56,0.00,,FEW010,0.00,VWS V14.01,2013-06-12 14:36:00,
2013-06-12 07:41:00,54.3,39.0,29.80,SSW,194,0.0,0.0,56,0.00,,FEW010,0.00,VWS V14.01,2013-06-12 14:41:00,
2013-06-12 07:46:00,54.5,39.1,29.80,SSW,194,0.0,0.0,56,0.00,,FEW010,0.00,VWS V14.01,2013-06-12 14:46:00,
2013-06-12 07:51:00,54.7,39.3,29.80,SSW,194,0.0,0.0,56,0.00,,FEW010,0.00,VWS V14.01,2013-06-12 14:51:00,
2013-06-12 07:56:00,54.9,39.5,29.80,SSW,194,0.0,0.0,56,0.00,,FEW010,0.00,VWS V14.01,2013-06-12 14:56:00,
2013-06-12 08:01:00,55.4,40.4,29.80,South,177,0.0,0.0,57,0.00,,FEW010,0.00,VWS V14.01,2013-06-12 15:01:00,
2013-06-12 08:06:00,55.6,40.6,29.80,South,178,0.0,0.0,57,0.00,,FEW010,0.00,VWS V14.01,2013-06-12 15:06:00,
2013-06-12 08:11:00,55.9,40.9,29.80,South,178,0.0,0.0,57,0.00,,FEW010,0.00,VWS V14.01,2013-06-12 15:11:00,
2013-06-12 08:16:00,56.1,41.1,29.80,South,191,0.0,0.0,57,0.00,,FEW010,0.00,VWS V14.01,2013-06-12 15:16:00,
2013-06-12 08:21:00,56.3,41.3,29.80,South,191,0.0,0.0,57,0.00,,FEW010,0.00,VWS V14.01,2013-06-12 15:21:00,
2013-06-12 08:26:00,56.7,42.1,29.80,WNW,289,0.0,0.0,58,0.00,,FEW010,0.00,VWS V14.01,2013-06-12 15:26:00,
2013-06-12 08:31:00,57.0,42.0,29.80,South,175,0.0,0.0,57,0.00,,FEW010,0.00,VWS V14.01,2013-06-12 15:31:00,
2013-06-12 08:36:00,57.2,41.7,29.80,South,185,0.0,0.0,56,0.00,,FEW010,0.00,VWS V14.01,2013-06-12 15:36:00,
2013-06-12 08:41:00,57.6,39.1,29.80,SW,216,0.0,0.0,50,0.00,,FEW010,0.00,VWS V14.01,2013-06-12 15:41:00,
2013-06-12 08:46:00,57.6,38.0,29.80,SW,216,0.0,0.0,48,0.00,,FEW010,0.00,VWS V14.01,2013-06-12 15:46:00,
2013-06-12 08:51:00,57.6,38.0,29.80,SW,216,0.0,0.0,48,0.00,,FEW010,0.00,VWS V14.01,2013-06-12 15:51:00,
2013-06-12 08:56:00,58.1,36.3,29.80,SSW,210,0.0,0.0,44,0.00,,FEW010,0.00,VWS V14.01,2013-06-12 15:56:00,
2013-06-12 09:01:00,58.3,35.3,29.80,SSW,192,2.7,2.7,42,0.00,,FEW010,0.00,VWS V14.01,2013-06-12 16:01:00,
2013-06-12 09:06:00,58.3,35.9,29.80,SSW,192,2.7,2.7,43,0.00,,FEW010,0.00,VWS V14.01,2013-06-12 16:06:00,
2013-06-12 09:11:00,58.3,34.7,29.80,SSW,211,3.6,3.6,41,0.00,,FEW010,0.00,VWS V14.01,2013-06-12 16:11:00,
2013-06-12 09:16:00,58.3,34.7,29.80,SSW,209,0.0,0.0,41,0.00,,FEW010,0.00,VWS V14.01,2013-06-12 16:16:00,
2013-06-12 09:21:00,58.8,35.2,29.83,SSW,209,0.0,0.0,41,0.00,,FEW010,0.00,VWS V14.01,2013-06-12 16:21:00,
2013-06-12 09:26:00,58.8,35.2,29.83,ESE,111,0.0,0.0,41,0.00,,FEW010,0.00,VWS V14.01,2013-06-12 16:26:00,
2013-06-12 09:31:00,58.8,35.2,29.83,SW,234,0.0,0.0,41,0.00,,FEW010,0.00,VWS V14.01,2013-06-12 16:31:00,
2013-06-12 09:36:00,59.2,32.3,29.83,SSW,199,0.0,0.0,36,0.00,,FEW010,0.00,VWS V14.01,2013-06-12 16:36:00,
2013-06-12 09:41:00,59.2,32.3,29.83,SSW,199,0.0,0.0,36,0.00,,FEW010,0.00,VWS V14.01,2013-06-12 16:41:00,
2013-06-12 09:46:00,59.5,32.6,29.83,SSW,199,0.0,0.0,36,0.00,,FEW010,0.00,VWS V14.01,2013-06-12 16:46:00,
2013-06-12 09:51:00,59.7,32.0,29.83,SSW,199,0.0,0.0,35,0.00,,FEW010,0.00,VWS V14.01,2013-06-12 16:51:00,
2013-06-12 09:56:00,60.3,32.5,29.83,SW,227,0.0,0.0,35,0.00,,FEW010,0.00,VWS V14.01,2013-06-12 16:56:00,
2013-06-12 10:01:00,60.3,32.5,29.83,SW,216,0.0,0.0,35,0.00,,FEW010,0.00,VWS V14.01,2013-06-12 17:01:00,
2013-06-12 10:06:00,60.3,31.8,29.83,SSW,196,0.0,0.0,34,0.00,,FEW010,0.00,VWS V14.01,2013-06-12 17:06:00,
2013-06-12 10:11:00,60.6,30.6,29.83,SSE,154,0.0,0.0,32,0.00,,FEW010,0.00,VWS V14.01,2013-06-12 17:11:00,
2013-06-12 10:16:00,60.8,30.0,29.83,SW,219,0.0,0.0,31,0.00,,FEW010,0.00,VWS V14.01,2013-06-12 17:16:00,
2013-06-12 10:21:00,61.0,28.5,29.83,SW,219,0.0,0.0,29,0.00,,FEW010,0.00,VWS V14.01,2013-06-12 17:21:00,
2013-06-12 10:26:00,61.2,29.5,29.83,SSE,148,0.0,0.0,30,0.00,,FEW010,0.00,VWS V14.01,2013-06-12 17:26:00,
2013-06-12 10:31:00,61.5,29.8,29.83,SSE,148,0.0,0.0,30,0.00,,FEW010,0.00,VWS V14.01,2013-06-12 17:31:00,
2013-06-12 10:36:00,61.9,28.4,29.83,SSE,148,0.0,0.0,28,0.00,,FEW010,0.00,VWS V14.01,2013-06-12 17:36:00,
2013-06-12 10:41:00,61.9,28.4,29.83,SSE,148,0.0,0.0,28,0.00,,FEW010,0.00,VWS V14.01,2013-06-12 17:41:00,
2013-06-12 10:45:00,61.7,28.3,29.83,West,259,0.0,0.0,28,0.00,,FEW010,0.00,VWS V14.01,2013-06-12 17:45:00,
2013-06-12 10:50:00,61.9,28.4,29.83,SSW,199,0.0,0.0,28,0.00,,FEW010,0.00,VWS V14.01,2013-06-12 17:50:00,
2013-06-12 10:55:00,62.1,29.5,29.83,SSW,200,0.0,0.0,29,0.00,,FEW010,0.00,VWS V14.01,2013-06-12 17:55:00,
2013-06-12 11:00:00,62.4,29.8,29.83,SW,216,0.0,0.0,29,0.00,,FEW010,0.00,VWS V14.01,2013-06-12 18:00:00,
2013-06-12 11:05:00,62.8,29.2,29.83,SW,216,0.0,0.0,28,0.00,,FEW010,0.00,VWS V14.01,2013-06-12 18:05:00,
2013-06-12 11:10:00,62.8,29.2,29.83,SW,216,0.0,0.0,28,0.00,,FEW010,0.00,VWS V14.01,2013-06-12 18:10:00,
2013-06-12 11:15:00,63.9,28.3,29.83,SW,221,4.7,4.7,26,0.00,,FEW010,0.00,VWS V14.01,2013-06-12 18:15:00,
2013-06-12 11:20:00,63.9,28.3,29.83,SSE,168,3.6,3.6,26,0.00,,FEW010,0.00,VWS V14.01,2013-06-12 18:20:00,
2013-06-12 11:25:00,63.9,28.3,29.83,SSE,168,3.6,3.6,26,0.00,,FEW010,0.00,VWS V14.01,2013-06-12 18:25:00,
2013-06-12 11:30:00,64.6,28.0,29.83,SSW,198,0.0,0.0,25,0.00,,FEW010,0.00,VWS V14.01,2013-06-12 18:30:00,
2013-06-12 11:35:00,64.6,28.0,29.83,SSW,198,0.0,0.0,25,0.00,,FEW010,0.00,VWS V14.01,2013-06-12 18:35:00,
2013-06-12 11:40:00,64.8,28.1,29.83,SSW,198,0.0,0.0,25,0.00,,FEW010,0.00,VWS V14.01,2013-06-12 18:40:00,
2013-06-12 11:45:00,64.9,28.3,29.83,South,189,3.1,3.1,25,0.00,,FEW010,0.00,VWS V14.01,2013-06-12 18:45:00,
2013-06-12 11:50:00,65.1,28.5,29.83,SSE,164,6.0,6.0,25,0.00,,FEW010,0.00,VWS V14.01,2013-06-12 18:50:00,
2013-06-12 11:55:00,65.1,28.5,29.83,SE,136,0.0,0.0,25,0.00,,FEW010,0.00,VWS V14.01,2013-06-12 18:55:00,
2013-06-12 12:00:00,65.8,28.1,29.83,SE,136,0.0,0.0,24,0.00,,FEW010,0.00,VWS V14.01,2013-06-12 19:00:00,
2013-06-12 12:05:00,66.7,28.8,29.83,SSE,150,0.0,0.0,24,0.00,,FEW010,0.00,VWS V14.01,2013-06-12 19:05:00,
2013-06-12 12:10:00,66.9,29.0,29.83,SSW,206,2.7,2.7,24,0.00,,FEW010,0.00,VWS V14.01,2013-06-12 19:10:00,
2013-06-12 12:15:00,66.9,29.0,29.83,SSW,206,2.7,2.7,24,0.00,,FEW010,0.00,VWS V14.01,2013-06-12 19:15:00,
2013-06-12 12:20:00,67.5,29.4,29.83,SSE,147,4.0,4.0,24,0.00,,FEW010,0.00,VWS V14.01,2013-06-12 19:20:00,
2013-06-12 12:25:00,67.8,29.7,29.83,SSW,210,4.0,4.0,24,0.00,,FEW010,0.00,VWS V14.01,2013-06-12 19:25:00,
2013-06-12 12:30:00,68.4,29.1,29.83,SSW,210,4.0,4.0,23,0.00,,FEW010,0.00,VWS V14.01,2013-06-12 19:30:00,
2013-06-12 12:35:00,68.7,29.5,29.80,SSW,210,4.0,4.0,23,0.00,,FEW010,0.00,VWS V14.01,2013-06-12 19:35:00,
2013-06-12 12:40:00,69.1,29.8,29.80,SSW,210,4.0,4.0,23,0.00,,FEW010,0.00,VWS V14.01,2013-06-12 19:40:00,
2013-06-12 12:45:00,69.4,30.1,29.80,SSE,157,3.1,3.1,23,0.00,,FEW010,0.00,VWS V14.01,2013-06-12 19:45:00,
2013-06-12 12:50:00,69.6,30.2,29.80,SSE,152,0.0,0.0,23,0.00,,FEW010,0.00,VWS V14.01,2013-06-12 19:50:00,
2013-06-12 12:55:00,69.6,30.2,29.80,South,171,4.0,4.0,23,0.00,,FEW010,0.00,VWS V14.01,2013-06-12 19:55:00,
2013-06-12 13:00:00,70.3,30.8,29.80,South,171,4.0,4.0,23,0.00,,FEW030,0.00,VWS V14.01,2013-06-12 20:00:00,
2013-06-12 13:05:00,70.3,30.8,29.80,South,171,4.0,4.0,23,0.00,,FEW030,0.00,VWS V14.01,2013-06-12 20:05:00,
2013-06-12 13:10:00,71.1,31.4,29.80,SSE,165,0.0,0.0,23,0.00,,FEW030,0.00,VWS V14.01,2013-06-12 20:10:00,
2013-06-12 13:15:00,71.1,31.4,29.80,SSW,200,3.1,3.1,23,0.00,,FEW030,0.00,VWS V14.01,2013-06-12 20:15:00,
2013-06-12 13:20:00,71.6,30.8,29.80,South,186,2.7,3.1,22,0.00,,FEW030,0.00,VWS V14.01,2013-06-12 20:20:00,
2013-06-12 13:25:00,71.6,30.8,29.80,South,186,2.7,2.7,22,0.00,,FEW030,0.00,VWS V14.01,2013-06-12 20:25:00,
2013-06-12 13:30:00,71.6,30.8,29.80,South,186,2.7,2.7,22,0.00,,FEW030,0.00,VWS V14.01,2013-06-12 20:30:00,
2013-06-12 13:35:00,71.6,30.8,29.80,SSE,158,3.6,3.6,22,0.00,,FEW030,0.00,VWS V14.01,2013-06-12 20:35:00,
2013-06-12 13:40:00,72.0,31.1,29.80,South,181,3.1,3.1,22,0.00,,FEW030,0.00,VWS V14.01,2013-06-12 20:40:00,
2013-06-12 13:45:00,72.5,31.5,29.80,SSE,166,0.0,3.1,22,0.00,,FEW030,0.00,VWS V14.01,2013-06-12 20:45:00,
2013-06-12 13:50:00,73.2,32.1,29.80,SW,226,3.6,3.6,22,0.00,,FEW030,0.00,VWS V14.01,2013-06-12 20:50:00,
2013-06-12 13:55:00,73.2,32.1,29.80,SW,226,3.6,3.6,22,0.00,,FEW030,0.00,VWS V14.01,2013-06-12 20:55:00,
2013-06-12 14:00:00,73.9,31.6,29.80,SSE,158,3.1,3.1,21,0.00,,FEW030,0.00,VWS V14.01,2013-06-12 21:00:00,
2013-06-12 14:05:00,73.9,31.6,29.80,West,259,0.0,0.0,21,0.00,,FEW030,0.00,VWS V14.01,2013-06-12 21:05:00,
2013-06-12 14:10:00,74.1,31.7,29.80,West,259,0.0,0.0,21,0.00,,FEW030,0.00,VWS V14.01,2013-06-12 21:10:00,
2013-06-12 14:15:00,74.1,31.7,29.80,SSW,194,3.6,3.6,21,0.00,,FEW030,0.00,VWS V14.01,2013-06-12 21:15:00,
2013-06-12 14:20:00,74.1,31.7,29.77,South,183,2.7,2.7,21,0.00,,FEW030,0.00,VWS V14.01,2013-06-12 21:20:00,
2013-06-12 14:25:00,74.1,31.7,29.77,SSW,194,0.0,4.5,21,0.00,,FEW030,0.00,VWS V14.01,2013-06-12 21:25:00,
2013-06-12 14:30:00,73.9,32.7,29.77,SE,126,0.0,0.0,22,0.00,,FEW030,0.00,VWS V14.01,2013-06-12 21:30:00,
2013-06-12 14:35:00,74.7,33.3,29.77,SE,137,0.0,4.5,22,0.00,,FEW030,0.00,VWS V14.01,2013-06-12 21:35:00,
2013-06-12 14:40:00,75.0,33.6,29.77,SE,142,2.7,2.7,22,0.00,,FEW030,0.00,VWS V14.01,2013-06-12 21:40:00,
2013-06-12 14:45:00,75.7,33.1,29.77,SSW,209,0.0,0.0,21,0.00,,FEW030,0.00,VWS V14.01,2013-06-12 21:45:00,
2013-06-12 14:50:00,76.5,33.7,29.77,South,178,0.0,0.0,21,0.00,,FEW030,0.00,VWS V14.01,2013-06-12 21:50:00,
2013-06-12 14:55:00,76.8,34.0,29.77,SSE,164,0.0,0.0,21,0.00,,FEW030,0.00,VWS V14.01,2013-06-12 21:55:00,
2013-06-12 15:00:00,77.4,34.4,29.77,SSE,163,0.0,0.0,21,0.00,,FEW030,0.00,VWS V14.01,2013-06-12 22:00:00,
2013-06-12 15:05:00,77.7,34.7,29.77,South,181,0.0,0.0,21,0.00,,FEW030,0.00,VWS V14.01,2013-06-12 22:05:00,
2013-06-12 15:10:00,78.4,35.3,29.77,South,186,3.1,3.1,21,0.00,,FEW030,0.00,VWS V14.01,2013-06-12 22:10:00,
2013-06-12 15:15:00,78.1,35.0,29.77,SSE,166,0.0,0.0,21,0.00,,FEW030,0.00,VWS V14.01,2013-06-12 22:15:00,
2013-06-12 15:20:00,78.3,35.2,29.77,SSE,166,0.0,0.0,21,0.00,,FEW030,0.00,VWS V14.01,2013-06-12 22:20:00,
2013-06-12 15:25:00,78.8,34.4,29.77,SSE,161,0.0,0.0,20,0.00,,FEW030,0.00,VWS V14.01,2013-06-12 22:25:00,
2013-06-12 15:30:00,79.2,34.7,29.77,SSW,199,2.7,2.7,20,0.00,,FEW030,0.00,VWS V14.01,2013-06-12 22:30:00,
2013-06-12 15:35:00,79.7,35.1,29.77,South,175,3.1,3.1,20,0.00,,FEW030,0.00,VWS V14.01,2013-06-12 22:35:00,
2013-06-12 15:40:00,79.7,35.1,29.77,SE,141,0.0,0.0,20,0.00,,FEW030,0.00,VWS V14.01,2013-06-12 22:40:00,
2013-06-12 15:45:00,80.1,35.4,29.77,SE,131,0.0,0.0,20,0.00,,FEW030,0.00,VWS V14.01,2013-06-12 22:45:00,
2013-06-12 15:50:00,80.1,35.4,29.77,NE,37,0.0,0.0,20,0.00,,FEW030,0.00,VWS V14.01,2013-06-12 22:50:00,
2013-06-12 15:55:00,81.1,36.3,29.77,South,185,0.0,0.0,20,0.00,,FEW030,0.00,VWS V14.01,2013-06-12 22:55:00,
2013-06-12 16:00:00,81.1,36.3,29.77,SE,145,0.0,0.0,20,0.00,,FEW030,0.00,VWS V14.01,2013-06-12 23:00:00,
2013-06-12 16:05:00,81.1,36.3,29.77,SSE,165,2.7,2.7,20,0.00,,CLR,0.00,VWS V14.01,2013-06-12 23:05:00,
2013-06-12 16:10:00,81.1,36.3,29.77,SSW,205,0.0,0.0,20,0.00,,CLR,0.00,VWS V14.01,2013-06-12 23:10:00,
2013-06-12 16:15:00,81.1,36.3,29.77,South,175,0.0,0.0,20,0.00,,CLR,0.00,VWS V14.01,2013-06-12 23:15:00,
2013-06-12 16:20:00,81.0,36.2,29.77,SSW,203,0.0,3.1,20,0.00,,CLR,0.00,VWS V14.01,2013-06-12 23:20:00,
2013-06-12 16:25:00,80.8,36.0,29.77,South,176,0.0,0.0,20,0.00,,CLR,0.00,VWS V14.01,2013-06-12 23:25:00,
2013-06-12 16:30:00,81.0,36.2,29.77,South,172,0.0,0.0,20,0.00,,CLR,0.00,VWS V14.01,2013-06-12 23:30:00,
2013-06-12 16:35:00,81.0,36.2,29.77,South,186,0.0,0.0,20,0.00,,CLR,0.00,VWS V14.01,2013-06-12 23:35:00,
2013-06-12 16:40:00,80.8,36.0,29.77,ENE,72,0.0,0.0,20,0.00,,CLR,0.00,VWS V14.01,2013-06-12 23:40:00,
2013-06-12 16:45:00,79.3,34.8,29.77,East,86,0.0,0.0,20,0.00,,CLR,0.00,VWS V14.01,2013-06-12 23:45:00,
2013-06-12 16:50:00,78.8,34.4,29.77,SSE,163,0.0,0.0,20,0.00,,CLR,0.00,VWS V14.01,2013-06-12 23:50:00,
2013-06-12 16:55:00,78.3,35.2,29.77,ENE,75,0.0,0.0,21,0.00,,CLR,0.00,VWS V14.01,2013-06-12 23:55:00,
2013-06-12 17:00:00,78.4,35.3,29.77,ESE,111,0.0,0.0,21,0.00,,CLR,0.00,VWS V14.01,2013-06-13 00:00:00,
2013-06-12 17:05:00,78.6,35.5,29.77,ESE,111,0.0,0.0,21,0.00,,CLR,0.00,VWS V14.01,2013-06-13 00:05:00,
2013-06-12 17:10:00,78.4,35.3,29.77,South,175,2.7,2.7,21,0.00,,CLR,0.00,VWS V14.01,2013-06-13 00:10:00,
2013-06-12 17:15:00,78.4,35.3,29.77,SSE,161,2.7,2.7,21,0.00,,CLR,0.00,VWS V14.01,2013-06-13 00:15:00,
2013-06-12 17:20:00,78.3,35.2,29.77,ESE,106,0.0,0.0,21,0.00,,CLR,0.00,VWS V14.01,2013-06-13 00:20:00,
2013-06-12 17:25:00,77.7,34.7,29.77,South,172,0.0,0.0,21,0.00,,CLR,0.00,VWS V14.01,2013-06-13 00:25:00,
2013-06-12 17:30:00,77.5,34.6,29.77,South,186,0.0,0.0,21,0.00,,CLR,0.00,VWS V14.01,2013-06-13 00:30:00,
2013-06-12 17:35:00,76.5,33.7,29.77,South,169,0.0,0.0,21,0.00,,CLR,0.00,VWS V14.01,2013-06-13 00:35:00,
2013-06-12 17:40:00,76.3,33.5,29.77,South,182,0.0,0.0,21,0.00,,CLR,0.00,VWS V14.01,2013-06-13 00:40:00,
2013-06-12 17:45:00,76.1,33.4,29.77,South,182,0.0,0.0,21,0.00,,CLR,0.00,VWS V14.01,2013-06-13 00:45:00,
2013-06-12 17:50:00,75.6,32.9,29.77,South,186,0.0,0.0,21,0.00,,CLR,0.00,VWS V14.01,2013-06-13 00:50:00,
2013-06-12 17:55:00,75.6,32.9,29.77,SSW,208,0.0,0.0,21,0.00,,CLR,0.00,VWS V14.01,2013-06-13 00:55:00,
2013-06-12 18:00:00,75.6,32.9,29.77,SSE,164,0.0,0.0,21,0.00,,CLR,0.00,VWS V14.01,2013-06-13 01:00:00,
2013-06-12 18:05:00,74.8,32.3,29.77,SSW,192,0.0,0.0,21,0.00,,FEW010,0.00,VWS V14.01,2013-06-13 01:05:00,
2013-06-12 18:10:00,74.8,32.3,29.77,SSW,192,0.0,0.0,21,0.00,,FEW010,0.00,VWS V14.01,2013-06-13 01:10:00,
2013-06-12 18:15:00,74.3,31.9,29.77,South,180,3.6,3.6,21,0.00,,FEW010,0.00,VWS V14.01,2013-06-13 01:15:00,
2013-06-12 18:20:00,74.1,31.7,29.77,NNE,30,0.0,0.0,21,0.00,,FEW010,0.00,VWS V14.01,2013-06-13 01:20:00,
2013-06-12 18:25:00,74.1,31.7,29.77,South,185,0.0,0.0,21,0.00,,FEW010,0.00,VWS V14.01,2013-06-13 01:25:00,
2013-06-12 18:30:00,72.5,31.5,29.77,SSW,194,4.0,4.0,22,0.00,,FEW010,0.00,VWS V14.01,2013-06-13 01:30:00,
2013-06-12 18:35:00,72.3,31.4,29.77,SSE,160,0.0,0.0,22,0.00,,FEW010,0.00,VWS V14.01,2013-06-13 01:35:00,
2013-06-12 18:40:00,72.1,31.2,29.77,ENE,61,0.0,0.0,22,0.00,,FEW010,0.00,VWS V14.01,2013-06-13 01:40:00,
2013-06-12 18:45:00,72.0,31.1,29.77,NNE,21,0.0,0.0,22,0.00,,FEW010,0.00,VWS V14.01,2013-06-13 01:45:00,
2013-06-12 18:50:00,71.8,30.9,29.77,South,171,0.0,0.0,22,0.00,,FEW010,0.00,VWS V14.01,2013-06-13 01:50:00,
2013-06-12 18:55:00,71.4,30.6,29.77,SSE,156,0.0,0.0,22,0.00,,FEW010,0.00,VWS V14.01,2013-06-13 01:55:00,
2013-06-12 19:00:00,71.2,30.5,29.77,SSW,195,0.0,0.0,22,0.00,,FEW010,0.00,VWS V14.01,2013-06-13 02:00:00,
2013-06-12 19:05:00,71.1,30.3,29.77,SSW,195,0.0,0.0,22,0.00,,FEW010,0.00,VWS V14.01,2013-06-13 02:05:00,
2013-06-12 19:10:00,70.7,30.0,29.77,SSE,155,0.0,0.0,22,0.00,,FEW010,0.00,VWS V14.01,2013-06-13 02:10:00,
2013-06-12 19:15:00,70.3,29.7,29.77,South,178,0.0,0.0,22,0.00,,FEW010,0.00,VWS V14.01,2013-06-13 02:15:00,
2013-06-12 19:20:00,70.2,29.6,29.77,SSE,157,0.0,0.0,22,0.00,,FEW010,0.00,VWS V14.01,2013-06-13 02:20:00,
2013-06-12 19:25:00,69.6,30.2,29.77,South,169,0.0,0.0,23,0.00,,FEW010,0.00,VWS V14.01,2013-06-13 02:25:00,
2013-06-12 19:30:00,69.4,30.1,29.77,South,183,0.0,0.0,23,0.00,,FEW010,0.00,VWS V14.01,2013-06-13 02:30:00,
2013-06-12 19:35:00,69.3,29.9,29.77,SSE,167,0.0,0.0,23,0.00,,FEW010,0.00,VWS V14.01,2013-06-13 02:35:00,
2013-06-12 19:40:00,69.1,29.8,29.77,South,181,0.0,0.0,23,0.00,,FEW010,0.00,VWS V14.01,2013-06-13 02:40:00,
2013-06-12 19:45:00,68.9,29.6,29.77,SSE,164,0.0,0.0,23,0.00,,FEW010,0.00,VWS V14.01,2013-06-13 02:45:00,
2013-06-12 19:50:00,68.9,29.6,29.77,SSE,160,0.0,0.0,23,0.00,,FEW010,0.00,VWS V14.01,2013-06-13 02:50:00,
2013-06-12 19:55:00,68.7,29.5,29.77,South,169,0.0,0.0,23,0.00,,FEW010,0.00,VWS V14.01,2013-06-13 02:55:00,
2013-06-12 20:00:00,68.5,29.3,29.77,South,169,0.0,0.0,23,0.00,,FEW010,0.00,VWS V14.01,2013-06-13 03:00:00,
2013-06-12 20:05:00,68.5,29.3,29.80,South,169,0.0,0.0,23,0.00,,FEW009,0.00,VWS V14.01,2013-06-13 03:05:00,
2013-06-12 20:10:00,68.0,28.9,29.80,South,169,0.0,0.0,23,0.00,,FEW009,0.00,VWS V14.01,2013-06-13 03:10:00,
2013-06-12 20:15:00,67.5,28.4,29.80,South,169,0.0,0.0,23,0.00,,FEW009,0.00,VWS V14.01,2013-06-13 03:15:00,
2013-06-12 20:20:00,67.5,28.4,29.80,ENE,69,0.0,0.0,23,0.00,,FEW009,0.00,VWS V14.01,2013-06-13 03:20:00,
2013-06-12 20:25:00,66.4,27.5,29.80,ENE,69,0.0,0.0,23,0.00,,FEW009,0.00,VWS V14.01,2013-06-13 03:25:00,
2013-06-12 20:30:00,66.4,27.5,29.80,SSE,168,0.0,0.0,23,0.00,,FEW009,0.00,VWS V14.01,2013-06-13 03:30:00,
2013-06-12 20:35:00,65.7,26.9,29.80,South,169,0.0,0.0,23,0.00,,FEW009,0.00,VWS V14.01,2013-06-13 03:35:00,
2013-06-12 20:40:00,65.7,26.9,29.80,SSE,167,0.0,0.0,23,0.00,,FEW009,0.00,VWS V14.01,2013-06-13 03:40:00,
2013-06-12 20:45:00,64.8,27.2,29.80,SSW,207,0.0,0.0,24,0.00,,FEW009,0.00,VWS V14.01,2013-06-13 03:45:00,
2013-06-12 20:50:00,64.4,26.9,29.80,South,175,0.0,0.0,24,0.00,,FEW009,0.00,VWS V14.01,2013-06-13 03:50:00,
2013-06-12 20:55:00,64.2,26.7,29.80,South,174,0.0,0.0,24,0.00,,FEW009,0.00,VWS V14.01,2013-06-13 03:55:00,
2013-06-12 21:00:00,64.2,26.7,29.80,NW,317,0.0,0.0,24,0.00,,FEW009,0.00,VWS V14.01,2013-06-13 04:00:00,
2013-06-12 21:01:00,63.9,26.4,29.80,NW,317,0.0,0.0,24,0.00,,SCT014,0.00,VWS V14.01,2013-06-13 04:01:00,
2013-06-12 21:06:00,63.9,26.4,29.80,NW,317,0.0,0.0,24,0.00,,SCT014,0.00,VWS V14.01,2013-06-13 04:06:00,
2013-06-12 21:11:00,63.5,26.1,29.80,NW,317,0.0,0.0,24,0.00,,SCT014,0.00,VWS V14.01,2013-06-13 04:11:00,
2013-06-12 21:16:00,63.3,25.9,29.80,NW,317,0.0,0.0,24,0.00,,SCT014,0.00,VWS V14.01,2013-06-13 04:16:00,
2013-06-12 21:21:00,63.1,25.8,29.80,SW,223,0.0,0.0,24,0.00,,SCT014,0.00,VWS V14.01,2013-06-13 04:21:00,
2013-06-12 21:26:00,63.1,25.8,29.80,SW,233,0.0,0.0,24,0.00,,SCT014,0.00,VWS V14.01,2013-06-13 04:26:00,
2013-06-12 21:31:00,63.0,25.6,29.80,SW,233,0.0,0.0,24,0.00,,SCT014,0.00,VWS V14.01,2013-06-13 04:31:00,
2013-06-12 21:36:00,62.6,25.3,29.83,SSW,204,0.0,0.0,24,0.00,,SCT014,0.00,VWS V14.01,2013-06-13 04:36:00,
2013-06-12 21:41:00,62.4,26.2,29.83,SSW,204,0.0,0.0,25,0.00,,SCT014,0.00,VWS V14.01,2013-06-13 04:41:00,
2013-06-12 21:46:00,62.2,26.0,29.83,SSW,204,0.0,0.0,25,0.00,,SCT014,0.00,VWS V14.01,2013-06-13 04:46:00,
2013-06-12 21:51:00,61.9,25.7,29.83,South,176,0.0,0.0,25,0.00,,SCT014,0.00,VWS V14.01,2013-06-13 04:51:00,
2013-06-12 21:56:00,61.5,25.4,29.83,South,177,0.0,0.0,25,0.00,,SCT014,0.00,VWS V14.01,2013-06-13 04:56:00,
2013-06-12 22:01:00,61.3,25.2,29.83,South,177,0.0,0.0,25,0.00,,SCT014,0.00,VWS V14.01,2013-06-13 05:01:00,
2013-06-12 22:06:00,61.2,25.1,29.83,South,176,0.0,0.0,25,0.00,,SCT014,0.00,VWS V14.01,2013-06-13 05:06:00,
2013-06-12 22:11:00,61.0,24.9,29.83,South,176,0.0,0.0,25,0.00,,SCT014,0.00,VWS V14.01,2013-06-13 05:11:00,
2013-06-12 22:16:00,60.6,25.6,29.83,South,177,0.0,0.0,26,0.00,,SCT014,0.00,VWS V14.01,2013-06-13 05:16:00,
2013-06-12 22:21:00,60.1,25.1,29.83,South,177,0.0,0.0,26,0.00,,SCT014,0.00,VWS V14.01,2013-06-13 05:21:00,
2013-06-12 22:26:00,59.9,25.0,29.83,South,177,0.0,0.0,26,0.00,,SCT014,0.00,VWS V14.01,2013-06-13 05:26:00,
2013-06-12 22:31:00,59.9,25.0,29.83,South,176,0.0,0.0,26,0.00,,SCT014,0.00,VWS V14.01,2013-06-13 05:31:00,
2013-06-12 22:36:00,59.9,25.0,29.83,South,177,0.0,0.0,26,0.00,,SCT014,0.00,VWS V14.01,2013-06-13 05:36:00,
2013-06-12 22:41:00,59.9,25.0,29.83,South,176,0.0,0.0,26,0.00,,SCT014,0.00,VWS V14.01,2013-06-13 05:41:00,
2013-06-12 22:46:00,59.5,25.5,29.83,South,176,0.0,0.0,27,0.00,,SCT014,0.00,VWS V14.01,2013-06-13 05:46:00,
2013-06-12 22:51:00,59.5,25.5,29.83,ENE,61,0.0,0.0,27,0.00,,SCT014,0.00,VWS V14.01,2013-06-13 05:51:00,
2013-06-12 22:56:00,59.2,25.2,29.83,ENE,61,0.0,0.0,27,0.00,,SCT014,0.00,VWS V14.01,2013-06-13 05:56:00,
2013-06-12 23:01:00,59.2,25.2,29.83,ENE,61,0.0,0.0,27,0.00,,SCT014,0.00,VWS V14.01,2013-06-13 06:01:00,
2013-06-12 23:06:00,59.0,26.0,29.83,ENE,61,0.0,0.0,28,0.00,,SCT014,0.00,VWS V14.01,2013-06-13 06:06:00,
2013-06-12 23:11:00,59.2,26.1,29.83,ENE,60,0.0,0.0,28,0.00,,SCT014,0.00,VWS V14.01,2013-06-13 06:11:00,
2013-06-12 23:16:00,59.2,26.1,29.83,ENE,61,0.0,0.0,28,0.00,,SCT014,0.00,VWS V14.01,2013-06-13 06:16:00,
2013-06-12 23:21:00,59.2,26.1,29.83,ENE,61,0.0,0.0,28,0.00,,SCT014,0.00,VWS V14.01,2013-06-13 06:21:00,
2013-06-12 23:26:00,59.2,25.2,29.83,ENE,61,0.0,0.0,27,0.00,,SCT014,0.00,VWS V14.01,2013-06-13 06:26:00,
2013-06-12 23:31:00,59.0,26.0,29.83,ENE,61,0.0,0.0,28,0.00,,SCT014,0.00,VWS V14.01,2013-06-13 06:31:00,
2013-06-12 23:36:00,59.2,26.1,29.83,ENE,61,0.0,0.0,28,0.00,,SCT014,0.00,VWS V14.01,2013-06-13 06:36:00,
2013-06-12 23:41:00,59.2,26.1,29.83,ENE,61,0.0,0.0,28,0.00,,SCT014,0.00,VWS V14.01,2013-06-13 06:41:00,
2013-06-12 23:46:00,58.8,25.8,29.83,ENE,61,0.0,0.0,28,0.00,,SCT014,0.00,VWS V14.01,2013-06-13 06:46:00,
2013-06-12 23:51:00,58.8,26.6,29.83,ENE,61,0.0,0.0,29,0.00,,SCT014,0.00,VWS V14.01,2013-06-13 06:51:00,
2013-06-12 23:56:00,58.6,26.5,29.83,ENE,61,0.0,0.0,29,0.00,,SCT014,0.00,VWS V14.01,2013-06-13 06:56:00,